Hourly Data Report for December 05, 2020

FORT GOOD HOPE CS
NORTHWEST TERRITORIES
Current Station Operator: ECCC - MSC

66°14'32.044" N
128°38'39.081" W
81.70 m
2201450
71491
ZGH

Download Data

Hourly Data (December 2020)
Hourly Data Report for December 5, 2020
TIME
LST
Temp Definition
°C
Dew Point Definition
°C
Rel Hum Definition
%
Precip. Amount Definition
mm

Wind Dir Definition
10's deg

Wind Spd Definition
km/h
Visibility Definition
km
Stn Press Definition
kPa
Hmdx Definition


Wind Chill Definition


Weather Definition


00:00 -12.8 -15.3 81 0.0   0   100.00     LegendNANA
01:00 -12.7 -14.7 84 0.1 0 1   99.98   -13 LegendNANA
02:00 -12.8 -14.8 85 0.1 3 2   99.95   -14 LegendNANA
03:00 -12.1 -14.0 86 0.0   0   99.96     LegendNANA
04:00 -12.1 -13.7 88 0.4 35 3   99.93   -14 LegendNANA
05:00 -12.1 -13.7 88 0.3 35 5   99.94   -15 LegendNANA
06:00 -12.7 -14.3 87 0.2 2 3   99.96   -15 LegendNANA
07:00 -13.3 -15.0 87 0.1 33 6   99.97   -17 LegendNANA
08:00 -13.9 -15.7 86 0.0 33 9   100.01   -20 LegendNANA
09:00 -15.6 -17.4 85 0.0 33 3   100.00   -18 LegendNANA
10:00 -15.3 -17.0 87 0.0 27 3   100.04   -17 LegendNANA
11:00 -14.3 -16.2 86 0.0 25 5   100.12   -18 LegendNANA
12:00 -13.8 -16.2 82 0.0 26 6   100.16   -18 LegendNANA
13:00 -13.9 -16.3 82 0.0 25 8   100.18   -19 LegendNANA
14:00 -14.3 -16.8 81 0.0 22 4   100.18   -17 LegendNANA
15:00 -15.2 -17.4 83 0.0 20 8   100.15   -21 LegendNANA
16:00 -16.9 -18.6 86 0.0 20 11   100.17   -24 LegendNANA
17:00 -17.8 -19.5 86 0.0 19 10   100.15   -25 LegendNANA
18:00 -18.7 -20.4 87 0.0 20 5   100.12   -23 LegendNANA
19:00 -18.4 -20.0 87 0.0 22 4   100.08   -22 LegendNANA
20:00 -20.0 -21.6 87 0.0 16 5   100.06   -24 LegendNANA
21:00 -19.7 -21.8 84 0.0 19 3   100.01   -22 LegendNANA
22:00 -21.0 -23.0 84 0.0 15 4   100.02   -25 LegendNANA
23:00 -22.1 -24.6 80 0.0 11 5   100.02   -27 LegendNANA

Notes on Data Quality.

Legend

  • E = Estimated
  • M = Missing
  • NA = Not Available*
  • [empty] = Indicates an unobserved value
Date modified: